Weather History for KTRM - November, 2012

Change the Weather History Date:

Thursday, November 8, 2012

  Actual Average Record
Temperature  
Mean Temperature 65 °F 64 °F  
Max Temperature 80 °F 82 °F 96 °F (1956)
Min Temperature 50 °F 46 °F 34 °F (2000)
Degree Days  
Heating Degree Days 0 3  
Month to date heating degree days 0 17  
Since 1 July heating degree days 0 28  
Cooling Degree Days 0 2  
Month to date cooling degree days 43 21  
Year to date cooling degree days 4272 3674  
Growing Degree Days 16 (Base 50)    
Moisture  
Dew Point 48 °F    
Average Humidity 52    
Maximum Humidity 71    
Minimum Humidity 32    
Precipitation  
Precipitation 0.00 in 0.00 in 0.29 in (1952)
Month to date precipitation 0.00 0.04  
Year to date precipitation 2.40 2.66  
Since 1 July precipitation 2.04 0.84  
Snow  
Snow 0.00 in - - ()
Month to date snowfall 0.0  
Year to date snowfall 0.0  
Since 1 July snowfall 0.0  
Snow Depth 0.00 in    
Sea Level Pressure  
Sea Level Pressure 29.80 in    
Wind  
Wind Speed 8 mph (NNW)    
Max Wind Speed 25 mph    
Max Gust Speed 33 mph    
Visibility 9 miles    
Events      
T = Trace of Precipitation, MM = Missing Value Source: NWS Daily Summary

Daily Weather History Graph

Daily Weather History Graph

Search for Another Location

Airport or City:

Trip Planner

Search our weather history database for the weather conditions in past years. The results will help you decide how hot, cold, wet, or windy it might be!

Date:

Astronomy

Nov. 08, 2012 Rise Set
Actual Time 6:10 AM PST 4:46 PM PST
Civil Twilight 5:44 AM PST 5:12 PM PST
Nautical Twilight 5:14 AM PST 5:41 PM PST
Astronomical Twilight 4:45 AM PST 6:11 PM PST
Moon 12:26 AM PST (11/8) 1:14 PM PST (11/8)
Length of Visible Light 11h 27m
Length of Day
10h 35m
Waning Crescent, 32% of the Moon is Illuminated
Nov 8
Waning Crescent
Nov 13
New
Nov 20
First Quarter
Nov 28
Full
Dec 6
Last Quarter

Hourly Weather History & Observations

Time (PST) Temp. Dew Point Humidity Pressure Visibility Wind Dir Wind Speed Gust Speed Precip Events Conditions
12:52 AM 57.9 °F 43.0 °F 58% 29.81 in 10.0 mi SW 8.1 mph - N/A   Clear
1:52 AM 54.0 °F 44.1 °F 69% 29.80 in 10.0 mi SE 5.8 mph - N/A   Clear
2:52 AM 53.1 °F 43.0 °F 69% 29.80 in 10.0 mi Calm Calm - N/A   Clear
3:52 AM 52.0 °F 42.1 °F 69% 29.81 in 10.0 mi Calm Calm - N/A   Clear
4:52 AM 52.0 °F 43.0 °F 71% 29.83 in 10.0 mi Calm Calm - N/A   Clear
5:47 AM 66.2 °F 46.4 °F 49% 29.85 in 4.0 mi NNW 21.9 mph 33.4 mph N/A   Haze
5:52 AM 68.0 °F 46.9 °F 47% 29.86 in 4.0 mi NNW 17.3 mph 29.9 mph N/A   Haze
6:22 AM 66.2 °F 46.4 °F 49% 29.86 in 7.0 mi NNW 16.1 mph - N/A   Scattered Clouds
6:34 AM 68.0 °F 46.4 °F 46% 29.86 in 5.0 mi NNW 18.4 mph - N/A   Haze
6:43 AM 68.0 °F 46.4 °F 46% 29.86 in 4.0 mi NNW 19.6 mph - N/A   Haze
6:52 AM 68.0 °F 46.0 °F 45% 29.86 in 5.0 mi NNW 21.9 mph - N/A   Haze
7:52 AM 70.0 °F 44.1 °F 39% 29.82 in 10.0 mi NNW 19.6 mph 24.2 mph N/A   Partly Cloudy
9:52 AM 72.0 °F 50.0 °F 46% 29.84 in 10.0 mi ESE 6.9 mph - N/A   Clear
10:52 AM 75.0 °F 48.9 °F 40% 29.82 in 10.0 mi SE 6.9 mph - N/A   Clear
11:52 AM 75.9 °F 46.9 °F 36% 29.79 in 10.0 mi SE 8.1 mph - N/A   Clear
12:52 PM 79.0 °F 46.9 °F 32% 29.77 in 10.0 mi SSE 9.2 mph - N/A   Clear
1:52 PM 78.1 °F 46.0 °F 32% 29.77 in 10.0 mi SSE 5.8 mph - N/A   Mostly Cloudy
2:52 PM 79.0 °F 48.0 °F 34% 29.75 in 10.0 mi SSE 8.1 mph - N/A   Partly Cloudy
3:52 PM 77.0 °F 52.0 °F 42% 29.75 in 10.0 mi South 3.5 mph - N/A   Mostly Cloudy
4:52 PM 73.9 °F 52.0 °F 46% 29.73 in 10.0 mi Calm Calm - N/A   Scattered Clouds
5:52 PM 71.1 °F 52.0 °F 51% 29.75 in 10.0 mi North 6.9 mph - N/A   Clear
6:52 PM 72.0 °F 52.0 °F 49% 29.75 in 10.0 mi North 8.1 mph - N/A   Clear
7:52 PM 70.0 °F 52.0 °F 53% 29.76 in 10.0 mi North 11.5 mph - N/A   Clear
8:52 PM 69.1 °F 51.1 °F 53% 29.77 in 10.0 mi North 10.4 mph - N/A   Clear
9:52 PM 66.9 °F 51.1 °F 57% 29.78 in 10.0 mi Calm Calm - N/A   Clear
10:52 PM 69.1 °F 51.1 °F 53% 29.76 in 10.0 mi North 10.4 mph - N/A   Scattered Clouds
11:52 PM 61.0 °F 51.1 °F 70% 29.76 in 10.0 mi West 4.6 mph - N/A   Partly Cloudy